Regional Weather Roundup
Issued by NWS Sioux Falls, SD

Home | Current Version | Previous Version | Graphics & Text | Print | Product List | Glossary On
Versions: 1 2 3 4 5 6 7 8 9 10 11 12 13 14 15 16 17 18 19 20 21 22 23 24 25 26 27 28 29 30 31 32 33 34 35 36 37 38 39 40 41 42 43 44 45 46 47 48 49 50
000
ASUS43 KFSD 222310
RWRFSD

WEATHER ROUNDUP FOR SE SOUTH DAKOTA/SW MINNESOTA/NW IOWA
NATIONAL WEATHER SERVICE SIOUX FALLS SD
600 PM CDT TUE APR 22 2014

NOTE: "FAIR" INDICATES FEW OR NO CLOUDS BELOW 12,000 FEET WITH NO
SIGNIFICANT WEATHER AND OR OBSTRUCTIONS TO VISIBILITY.


SDZ038>040-050-052>070-230000-
SOUTHEAST SOUTH DAKOTA

CITY           SKY/WX    TMP DP  RH WIND       PRES   REMARKS
CHAMBERLAIN      N/A     71  32  23 SE28G35   29.81F
HURON          CLOUDY    64  28  25 SE16G28   29.90F
MADISON        MOCLDY    63  32  31 SE14      29.96F
MITCHELL       PTSUNNY   68  30  24 SE21G33   29.92F
SIOUX FALLS    CLOUDY    64  31  28 SE13      29.96F
WINNER         FAIR      76  32  20 S28G37    29.76F
YANKTON        PTSUNNY   66  30  26 SE21G26   29.93F
$$

MNZ071-072-080-081-089-090-097-098-230000-
SOUTHWEST MINNESOTA

CITY           SKY/WX    TMP DP  RH WIND       PRES   REMARKS
FAIRMONT       SUNNY     61  28  29 CALM      30.05S
JACKSON        SUNNY     63  27  25 S3        30.03S
LUVERNE        CLOUDY    66  30  26 S10       29.99S
MARSHALL       MOSUNNY   63  30  29 E10       29.99F
MONTEVIDEO     PTSUNNY   63  34  34 S10       30.02F
PIPESTONE      CLOUDY    63  28  27 S10       29.98F
REDWOOD FALLS  MOSUNNY   61  31  32 E7        30.03S
TRACY          MOSUNNY   63  32  31 E10       30.01F
WINDOM         SUNNY     63  28  27 E5        30.02S
WORTHINGTON    MOSUNNY   63  28  27 SE5       30.03F
$$

IAZ001>003-012>014-020>022-031-032-NEZ013-014-SDZ071-230000-
NORTHWEST IOWA

CITY           SKY/WX    TMP DP  RH WIND       PRES   REMARKS
CHEROKEE       CLOUDY    65  33  29 SE7       30.00S
DENISON        MOSUNNY   64  32  29 SE8       29.99F
ESTHERVILLE    SUNNY     61  31  32 NE3       30.02F
LE MARS        PTSUNNY   64  34  32 SE13      29.99F
ORANGE CITY    PTSUNNY   66  27  22 SE9       29.99F
SHELDON        MOSUNNY   64  32  29 SE9       29.99S
SIOUX CITY     CLOUDY    67  33  28 SE15      29.98F
SPENCER        MOSUNNY   63  32  31 CALM      30.01F
STORM LAKE     SUNNY     63  34  34 SE12      30.02F
$$

ABBREVIATIONS USED IN REMARKS
   TC - TEMPERATURE IN CELSIUS
  WCI - WIND CHILL INDEX
   HX - HEAT INDEX
  VSB - VISIBILITY




USA.gov is the U.S. government's official web portal to all federal, state and local government web resources and services.